Voltar ao catálogo

NIMBUS 2 DEB

AtivoSSO
NORAD 47186·DEBRIS·🇺🇸 United States

Lançado May 15, 1966 de Vandenberg Space Force Base

Loading…

Próximas Passagens (próximas 24 horas)

TLE

AtualizadoSource: Space-Track

Época: Sep 14, 2026, 00:26 UTC

1 47186U 66040BW  26257.01833219  .00000922  00000-0  17458-2 0  9991
2 47186 100.4105 100.8872 0061511  45.4380 315.1746 13.40575210288949

Acompanhe NIMBUS 2 DEB em tempo real com AllMySat

Download on the App Store